Temp
51 52 53 52 52 52 53 53 54 53 53 52 51 51 50 51 52 53 54 54 54 55 53 52 52 52 51 50 52 52 51 51 52 50 55 51 53 55 56 55 57 59 63
49 51 51 49 51 51 51 52 53 53 52 51 51 51 50 50 50 51 52 52 53 53 55 50 50 50 50 50 49 49 49 50 51 48 47 46 49 53 55 56 58 61 62
48 49 49 47 48 49 49 52 52 51 50 51 51 50 50 49 49 49 49 50 51 52 51 50 49 48 48 47 47 48 48 47 49 50 49 46 44 53 52 54 53 57 60
47 48 48 46 46 47 48 50 51 51 51 50 48 47 46 45 46 46 46 48 50 50 50 50 49 48 47 46 46 51 47 46 46 48 53 50 51 49 45 49 54 52 56
47 47 47 48 47 47 46 47 49 49 49 48 48 45 45 44 45 45 46 46 47 49 49 49 48 47 46 46 46 46 45 46 45 45 46 46 47 47 46 45 46 53 52
45 46 47 48 47 46 46 47 49 48 48 48 47 46 45 44 44 44 44 44 45 46 47 48 47 46 46 45 45 45 45 45 45 45 45 45 44 45 45 45 47 47 50
43 44 45 45 46 46 47 48 48 48 48 48 47 46 45 44 43 43 42 43 43 44 45 46 45 45 46 46 46 44 44 44 43 43 44 45 45 46 46 46 46 44 50
44 44 45 45 46 47 47 47 47 48 48 47 47 46 46 44 44 44 43 43 43 43 45 45 45 46 46 45 45 43 43 44 42 42 42 44 44 46 46 45 44 43 45
43 44 45 45 45 45 46 46 47 47 47 47 46 46 45 45 44 45 43 43 44 47 46 45 45 45 44 45 44 42 42 42 42 42 42 42 44 44 44 45 44 43 40
43 43 44 44 45 44 45 45 46 46 46 45 44 46 44 44 44 43 43 44 45 44 44 44 44 44 44 43 43 41 42 41 42 44 42 42 43 42 42 42 43 43 43
41 40 41 41 42 42 43 43 43 44 44 44 44 43 43 43 43 42 43 44 45 45 44 43 43 43 43 43 41 41 41 41 41 42 42 42 42 43 41 41 41 42 42
39 39 39 39 39 40 41 41 42 42 43 43 42 42 42 42 41 41 43 44 44 45 43 43 42 42 42 42 41 41 42 40 40 41 40 41 45 42 40 39 39 39 41
38 37 37 37 37 38 39 40 41 41 42 42 41 41 41 40 40 40 42 43 43 42 41 42 41 42 44 43 41 40 41 41 40 40 39 40 40 39 38 38 37 38 42
38 37 36 36 36 37 37 37 38 39 40 40 39 38 38 39 39 40 41 41 42 43 43 43 43 43 43 42 41 41 40 39 41 40 40 40 39 39 38 38 37 38 37
36 36 36 36 36 35 36 37 37 38 39 38 38 38 39 39 38 38 39 41 41 43 43 43 43 42 41 42 39 39 39 38 38 39 39 40 40 43 43 41 37 36 37
36 36 37 35 35 33 35 37 37 38 38 37 38 40 40 40 40 39 39 40 40 40 40 40 39 38 41 45 47 46 40 38 38 38 39 39 42 42 46 46 46 44 36
34 36 36 35 34 35 36 35 37 38 37 37 39 40 40 39 39 39 38 38 39 39 38 38 38 37 38 44 46 47 43 39 39 38 38 39 42 42 39 42 45 45 46
37 37 36 35 36 36 36 37 38 37 37 37 38 39 38 38 39 39 38 39 39 38 38 38 38 38 39 44 46 46 42 41 39 38 38 37 38 39 38 37 36 37 37
36 35 36 35 35 36 37 36 35 35 35 37 38 39 39 39 39 37 38 39 38 38 38 39 38 37 37 43 44 44 39 38 38 39 38 37 37 41 43 39 35 35 36
36 35 36 35 34 34 35 33 35 35 36 37 38 40 40 39 38 38 38 40 39 38 40 39 39 40 38 42 44 44 40 37 37 38 37 41 41 43 44 39 37 34 36
35 36 34 33 34 35 34 33 35 34 38 39 39 40 40 39 38 38 39 38 38 39 38 38 38 38 39 38 43 44 41 38 37 36 36 36 41 43 44 44 39 37 38
34 36 34 34 35 35 34 34 34 38 38 38 38 38 38 38 40 37 37 37 37 36 35 35 35 37 37 40 42 43 44 43 38 36 37 37 41 42 43 43 44 45 43
32 34 33 34 34 34 33 33 36 37 36 37 36 36 37 37 37 35 35 35 36 35 34 34 34 34 37 37 42 43 44 44 40 39 39 42 42 42 42 43 43 44 37
32 33 31 31 32 35 35 33 35 36 35 34 34 35 34 35 36 36 36 34 34 34 34 34 33 34 35 36 36 36 36 39 38 39 36 39 41 42 40 39 37 35 32
32 32 31 32 33 34 34 34 35 35 33 33 33 33 33 33 33 34 34 34 35 36 34 35 35 31 31 33 37 38 37 35 34 36 32 30 30 31 31 30 30 29 30
31 30 31 30 32 33 33 33 34 34 32 31 32 32 32 32 32 32 32 37 38 39 39 39 38 38 39 40 40 40 41 41 41 36 32 31 30 30 31 31 31 29 32
MSLP
1020.99 1021.11 1021.31 1021.48 1021.72 1021.90 1022.00 1022.01 1021.94 1021.84 1021.69 1021.72 1021.91 1021.93 1022.17 1022.18 1022.11 1022.05 1022.01 1021.92 1021.71 1021.46 1021.44 1021.38 1021.17 1020.90 1020.76 1020.55 1020.22 1019.90 1019.59 1019.07 1018.66 1018.20 1017.24 1016.46 1015.98 1015.77 1015.41 1015.13 1015.14 1014.78 1014.47
1021.26 1021.47 1021.65 1021.79 1021.98 1022.23 1022.36 1022.35 1022.29 1022.21 1022.15 1022.10 1022.16 1022.20 1022.41 1022.54 1022.52 1022.48 1022.39 1022.28 1022.05 1021.87 1021.64 1021.75 1021.66 1021.43 1021.14 1020.83 1020.58 1020.42 1020.17 1019.67 1019.14 1018.94 1018.15 1017.33 1016.49 1015.92 1015.47 1015.23 1015.10 1014.80 1014.43
1021.31 1021.80 1022.04 1022.23 1022.40 1022.61 1022.72 1022.67 1022.66 1022.66 1022.60 1022.47 1022.31 1022.40 1022.53 1022.69 1022.89 1022.89 1022.83 1022.73 1022.49 1022.26 1022.07 1021.91 1021.81 1021.69 1021.48 1021.33 1021.03 1020.76 1020.65 1020.35 1019.59 1019.33 1019.09 1018.37 1017.77 1016.98 1015.81 1015.37 1015.14 1014.93 1014.69
1021.58 1021.93 1022.13 1022.47 1022.71 1022.87 1022.87 1022.87 1022.89 1022.89 1022.92 1022.74 1022.82 1023.06 1023.37 1023.56 1023.64 1023.51 1023.29 1022.97 1022.69 1022.51 1022.31 1022.14 1021.97 1021.81 1021.71 1021.65 1021.43 1021.07 1020.92 1020.68 1020.34 1019.51 1019.15 1019.17 1018.81 1017.97 1016.66 1015.88 1015.51 1015.14 1014.81
1021.53 1022.00 1022.33 1022.56 1022.81 1023.00 1023.10 1023.02 1023.05 1023.12 1023.17 1023.15 1023.22 1023.38 1023.61 1023.72 1023.66 1023.55 1023.32 1023.21 1022.96 1022.70 1022.47 1022.29 1022.09 1021.83 1021.68 1021.59 1021.42 1021.26 1021.19 1020.92 1020.67 1020.38 1019.79 1019.12 1018.68 1018.32 1018.13 1016.60 1015.76 1015.27 1014.87
1021.90 1022.27 1022.57 1022.76 1022.95 1023.09 1023.13 1023.10 1023.14 1023.28 1023.29 1023.29 1023.35 1023.45 1023.66 1023.81 1023.80 1023.67 1023.70 1023.52 1023.24 1022.81 1022.46 1022.19 1022.05 1021.88 1021.70 1021.53 1021.29 1021.15 1021.10 1020.94 1020.78 1020.55 1020.26 1019.87 1019.39 1018.59 1018.43 1017.55 1016.49 1015.86 1014.73
1022.15 1022.61 1022.80 1022.96 1023.03 1023.07 1023.07 1023.16 1023.31 1023.46 1023.35 1023.39 1023.49 1023.63 1023.76 1023.80 1023.89 1023.89 1023.84 1023.65 1023.32 1022.84 1022.40 1022.14 1021.99 1021.77 1021.47 1021.22 1021.02 1020.93 1020.79 1020.65 1020.52 1020.41 1020.17 1019.75 1019.35 1018.82 1018.30 1017.82 1016.82 1016.13 1014.93
1022.48 1022.76 1022.84 1022.93 1023.00 1022.99 1023.11 1023.31 1023.41 1023.46 1023.44 1023.44 1023.54 1023.63 1023.61 1023.62 1023.60 1023.56 1023.48 1023.28 1022.97 1022.57 1022.11 1021.84 1021.63 1021.38 1021.20 1021.05 1020.84 1020.72 1020.55 1020.37 1020.19 1020.00 1019.77 1019.41 1019.04 1018.71 1018.38 1018.05 1017.62 1016.31 1015.42
1022.47 1022.73 1022.91 1023.07 1023.20 1023.34 1023.48 1023.51 1023.51 1023.51 1023.51 1023.54 1023.55 1023.49 1023.45 1023.46 1023.39 1023.25 1023.10 1022.78 1022.40 1021.93 1021.56 1021.33 1021.19 1021.02 1020.81 1020.62 1020.50 1020.45 1020.18 1019.96 1019.75 1019.53 1019.30 1019.14 1018.73 1018.47 1018.14 1017.78 1017.60 1017.40 1016.39
1022.75 1023.08 1023.25 1023.36 1023.34 1023.47 1023.61 1023.71 1023.78 1023.87 1023.91 1023.92 1023.99 1023.94 1023.93 1023.90 1023.80 1023.61 1023.31 1022.84 1022.25 1021.69 1021.32 1020.95 1020.67 1020.46 1020.30 1020.16 1020.13 1020.03 1019.76 1019.53 1019.18 1018.87 1018.61 1018.41 1018.18 1017.91 1017.74 1017.53 1017.22 1017.02 1016.67
1023.20 1023.68 1023.87 1023.98 1023.96 1023.88 1023.88 1024.03 1024.16 1024.19 1024.08 1023.98 1024.02 1024.04 1023.95 1023.79 1023.55 1023.29 1022.94 1022.50 1021.89 1021.43 1021.01 1020.64 1020.38 1020.12 1019.89 1019.75 1019.70 1019.53 1019.27 1019.06 1018.67 1018.35 1018.17 1017.78 1017.58 1017.31 1017.25 1017.06 1016.86 1016.57 1016.27
1023.67 1024.02 1024.27 1024.40 1024.41 1024.39 1024.41 1024.42 1024.38 1024.38 1024.37 1024.28 1024.17 1023.99 1023.78 1023.60 1023.37 1022.97 1022.49 1021.96 1021.43 1020.89 1020.62 1020.21 1019.90 1019.66 1019.42 1019.11 1019.04 1018.92 1018.71 1018.53 1018.18 1017.84 1017.58 1017.06 1016.91 1016.66 1016.56 1016.53 1016.31 1016.19 1015.80
1024.00 1024.50 1024.66 1024.82 1024.85 1024.85 1024.87 1024.86 1024.76 1024.64 1024.44 1024.24 1024.03 1023.78 1023.53 1023.35 1023.14 1022.58 1022.06 1021.67 1021.17 1020.68 1020.28 1019.74 1019.26 1018.83 1018.58 1018.46 1018.22 1018.06 1017.93 1017.74 1017.43 1017.11 1016.88 1016.45 1016.32 1016.12 1016.03 1015.89 1015.73 1015.49 1015.15
1024.29 1024.66 1024.87 1025.08 1025.25 1025.33 1025.34 1025.17 1024.92 1024.61 1024.31 1024.01 1023.87 1023.66 1023.19 1022.88 1022.52 1022.07 1021.70 1021.25 1020.78 1020.28 1019.75 1019.24 1018.69 1018.15 1017.88 1017.75 1017.51 1017.33 1017.11 1016.83 1016.53 1016.26 1015.94 1015.64 1015.51 1015.34 1015.36 1015.23 1015.02 1014.84 1014.68
1024.56 1024.88 1025.13 1025.26 1025.36 1025.28 1024.93 1024.67 1024.50 1024.14 1023.85 1023.75 1023.48 1023.11 1022.64 1022.31 1021.98 1021.62 1021.15 1020.66 1020.19 1019.66 1019.14 1018.65 1018.04 1017.56 1017.27 1016.98 1016.84 1016.55 1016.27 1016.01 1015.76 1015.36 1015.02 1014.64 1014.48 1014.27 1014.28 1014.31 1014.16 1014.17 1014.06
1024.51 1024.80 1024.93 1025.01 1025.11 1025.12 1024.83 1024.58 1024.25 1023.94 1023.65 1023.47 1023.02 1022.55 1022.12 1021.66 1021.28 1020.85 1020.37 1020.00 1019.53 1018.98 1018.47 1017.95 1017.45 1016.95 1016.48 1015.93 1015.65 1015.46 1015.38 1015.25 1014.93 1014.60 1014.09 1013.75 1013.53 1013.35 1013.20 1013.15 1013.03 1013.09 1013.14
1024.52 1024.69 1024.85 1024.88 1024.95 1024.87 1024.55 1024.35 1023.76 1023.29 1023.09 1022.72 1022.28 1021.85 1021.40 1020.99 1020.55 1020.04 1019.61 1019.23 1018.71 1018.17 1017.67 1017.21 1016.74 1016.24 1015.61 1015.03 1014.64 1014.40 1014.29 1014.25 1013.97 1013.72 1013.31 1012.91 1012.64 1012.47 1012.34 1012.21 1012.07 1012.01 1012.04
1024.44 1024.58 1024.66 1024.60 1024.30 1023.93 1023.76 1023.50 1023.22 1022.83 1022.48 1022.08 1021.62 1021.07 1020.64 1020.21 1019.54 1019.02 1018.56 1018.04 1017.61 1017.08 1016.67 1016.20 1015.71 1015.21 1014.60 1014.05 1013.52 1013.28 1013.19 1013.09 1012.94 1012.54 1012.32 1012.20 1011.76 1011.50 1011.51 1011.53 1011.50 1011.31 1011.29
1024.27 1024.29 1024.19 1024.14 1024.01 1023.86 1023.47 1023.11 1022.74 1022.29 1021.91 1021.43 1020.88 1020.31 1019.83 1019.34 1018.81 1018.24 1017.69 1017.05 1016.62 1015.98 1015.58 1015.18 1014.64 1014.25 1013.53 1013.01 1012.63 1012.31 1012.20 1012.10 1011.76 1011.39 1011.19 1011.04 1010.97 1010.47 1010.67 1010.69 1010.56 1010.55 1010.31
1024.26 1024.21 1023.93 1023.88 1023.81 1023.27 1022.78 1022.46 1022.05 1021.63 1021.11 1020.53 1019.88 1019.36 1018.88 1018.39 1017.89 1017.38 1016.71 1016.04 1015.64 1014.97 1014.47 1013.90 1013.47 1013.02 1012.53 1012.05 1011.54 1011.26 1011.27 1011.07 1010.80 1010.47 1010.28 1010.08 1009.92 1009.58 1009.51 1009.73 1009.59 1009.65 1009.21
1023.83 1023.60 1023.50 1023.46 1023.06 1022.66 1022.35 1022.11 1021.58 1021.03 1020.27 1019.69 1019.13 1018.51 1017.96 1017.55 1017.06 1016.40 1015.79 1015.32 1014.74 1013.96 1013.38 1012.93 1012.23 1011.89 1011.58 1011.02 1010.57 1010.32 1010.24 1010.10 1009.88 1009.68 1009.42 1009.19 1008.99 1008.71 1008.45 1008.45 1008.47 1008.34 1008.28
1023.52 1023.29 1023.21 1022.92 1022.52 1022.26 1022.07 1021.60 1021.07 1020.16 1019.47 1018.94 1018.45 1017.87 1017.33 1016.87 1016.29 1015.79 1015.13 1014.71 1013.98 1013.11 1012.43 1011.92 1011.25 1010.92 1010.47 1010.01 1009.61 1009.35 1009.09 1008.91 1008.79 1008.61 1008.38 1008.11 1007.88 1007.78 1007.63 1007.54 1007.39 1007.24 1007.32
1023.49 1023.13 1022.94 1022.52 1022.24 1021.82 1021.56 1021.01 1020.11 1019.51 1018.90 1018.46 1017.95 1017.40 1016.73 1016.24 1015.74 1015.17 1014.52 1013.74 1013.04 1012.36 1011.53 1010.92 1010.37 1009.84 1009.42 1008.92 1008.59 1008.21 1008.00 1007.81 1007.67 1007.47 1007.27 1007.03 1006.94 1006.90 1006.82 1006.68 1006.56 1006.51 1006.82
1023.19 1022.85 1022.64 1022.22 1021.62 1021.21 1020.82 1020.43 1019.60 1018.90 1018.52 1018.08 1017.57 1016.93 1016.29 1015.57 1014.95 1014.50 1013.85 1013.00 1012.31 1011.53 1010.80 1010.15 1009.48 1008.90 1008.40 1008.11 1007.86 1007.48 1007.21 1006.97 1006.82 1006.64 1006.66 1006.48 1006.18 1006.02 1005.92 1005.90 1005.88 1005.92 1006.14
1022.85 1022.53 1022.27 1021.75 1021.07 1020.52 1020.02 1019.50 1019.07 1018.70 1018.25 1017.71 1016.94 1016.24 1015.66 1014.95 1014.20 1013.58 1012.93 1012.22 1011.51 1010.88 1010.00 1009.30 1008.79 1008.38 1007.77 1007.44 1007.11 1006.65 1006.28 1006.01 1005.99 1005.86 1005.96 1005.90 1005.69 1005.57 1005.46 1005.43 1005.45 1005.61 1005.77
1022.37 1021.99 1021.52 1021.14 1020.44 1019.91 1019.44 1019.04 1018.69 1018.32 1017.78 1016.90 1016.23 1015.73 1015.00 1014.16 1013.42 1012.58 1011.71 1011.34 1010.46 1009.70 1009.12 1008.44 1007.86 1007.18 1006.69 1006.01 1005.56 1005.20 1004.82 1004.60 1004.49 1004.38 1004.50 1004.58 1004.67 1004.69 1004.62 1004.63 1004.55 1004.68 1004.79
Wind_Speed
5 4 4 5 6 5 5 4 5 4 4 3 2 2 2 2 3 4 6 7 6 6 6 4 5 5 4 5 5 4 4 4 4 3 7 3 3 6 4 3 1 4 5
5 5 4 4 4 4 4 4 4 4 4 2 1 2 1 1 2 3 5 6 6 6 5 5 5 5 4 6 6 5 4 3 4 4 3 5 5 4 4 4 4 6 4
9 6 5 5 4 4 3 4 4 5 5 4 3 3 3 3 4 4 4 5 6 6 6 6 5 5 4 4 5 5 6 4 3 5 2 5 3 9 4 5 3 6 6
5 5 6 4 4 3 3 4 4 5 5 6 6 5 2 2 1 2 2 4 5 5 5 5 5 5 4 5 4 5 3 4 5 4 2 3 3 4 6 2 6 4 6
8 8 6 5 4 4 3 3 5 6 5 6 5 4 3 1 1 2 5 5 5 5 5 5 5 5 4 4 5 5 5 3 3 3 3 3 3 4 4 9 4 5 3
7 6 5 5 4 3 3 3 4 3 4 4 4 5 4 2 3 4 4 4 4 4 5 5 5 5 4 4 4 3 5 4 4 3 4 2 3 3 3 5 8 9 5
7 7 7 5 5 5 4 3 3 2 2 3 3 3 2 2 2 3 3 5 3 3 5 4 5 4 4 5 4 4 4 4 3 4 4 3 4 4 4 5 8 5 6
6 7 7 6 5 6 4 3 3 2 1 1 1 1 0 1 2 3 3 4 3 4 5 5 5 6 6 5 5 3 4 5 4 6 5 5 4 4 3 3 6 11 6
8 8 6 3 2 1 1 4 3 1 2 2 2 3 3 4 5 6 5 4 6 5 6 6 6 6 6 6 6 4 6 4 5 5 5 4 4 4 4 4 3 4 7
6 5 4 3 2 2 1 2 3 3 5 6 5 5 6 6 6 6 8 8 8 7 7 7 6 6 6 6 5 5 6 6 5 5 6 6 5 5 4 4 4 4 7
7 6 6 6 6 6 6 6 6 5 6 6 5 6 6 6 6 6 7 8 9 10 9 7 7 7 7 6 6 6 7 8 8 6 7 8 6 6 4 4 4 6 5
7 6 6 6 6 6 6 6 6 6 5 4 3 5 5 6 6 7 8 9 10 10 10 8 6 7 7 8 7 8 8 8 9 10 8 10 7 8 5 4 5 6 5
7 6 6 5 6 6 6 6 5 5 5 5 5 6 6 6 7 7 8 10 10 10 8 7 8 8 9 9 8 8 10 10 10 10 9 11 8 10 5 5 5 5 6
6 5 5 5 3 3 3 4 5 5 5 5 5 6 6 7 7 7 8 9 10 11 12 11 11 8 9 9 8 9 10 10 10 10 9 10 9 10 8 7 7 6 5
6 4 2 3 3 5 5 5 5 6 5 6 6 7 7 7 7 7 8 9 9 11 11 12 12 11 9 7 8 9 10 11 11 10 10 10 12 17 14 7 6 6 6
4 2 3 5 6 6 6 6 7 7 6 7 8 8 8 9 10 9 10 10 11 11 11 12 11 11 8 15 19 16 8 10 11 11 11 10 14 15 20 20 20 14 7
0 4 6 6 6 7 7 8 8 7 7 8 10 10 10 11 11 11 9 10 12 11 11 12 12 13 12 19 20 19 9 8 10 11 11 10 9 13 10 15 18 17 19
5 6 6 6 7 6 7 8 8 9 10 10 11 10 10 10 12 11 11 12 11 12 12 13 13 13 12 22 21 21 10 9 11 12 12 10 13 11 10 8 9 10 9
5 6 6 7 7 8 11 9 8 8 9 11 11 11 11 13 13 13 13 12 11 12 12 13 14 14 14 22 23 19 8 8 12 13 11 11 11 18 18 10 11 9 10
6 7 8 6 6 8 7 7 10 10 11 12 13 13 12 12 13 14 15 14 13 13 12 15 14 18 15 21 23 20 8 9 9 10 9 19 16 22 21 11 10 10 11
7 7 7 6 8 8 7 9 10 11 13 13 13 14 15 14 14 15 13 13 13 15 16 15 14 15 15 14 23 24 11 8 8 8 8 7 18 20 21 20 10 13 9
7 9 7 8 8 8 7 12 12 13 12 12 13 14 14 12 12 14 14 14 15 15 15 15 13 11 12 19 19 22 21 18 10 9 8 9 19 20 21 18 18 22 18
7 8 8 10 9 8 7 11 13 11 11 12 13 13 14 12 13 14 14 12 12 12 13 11 11 11 9 9 19 23 23 22 13 8 12 19 19 20 17 19 20 19 6
8 8 8 10 11 8 7 8 11 11 11 13 14 12 13 15 13 11 11 11 11 12 12 12 11 11 10 9 7 8 9 15 13 12 10 12 17 18 15 12 10 5 5
7 7 8 9 11 10 10 8 10 10 12 13 12 12 11 13 13 12 11 11 12 14 13 12 11 10 10 10 17 18 12 8 10 11 6 6 6 7 7 5 5 4 4
8 7 8 8 11 11 11 10 9 10 12 12 11 10 11 11 11 12 12 19 25 29 29 29 23 14 23 30 29 28 27 27 25 12 8 8 7 8 8 8 8 6 10
Wind_Direction
191 163 147 128 106 67 86 69 73 28 43 39 31 23 30 359 30 27 23 17 12 16 31 24 12 0 9 342 345 324 321 317 326 316 331 308 314 355 350 325 243 271 272
152 148 133 101 91 116 98 86 74 51 34 48 48 83 51 30 48 9 24 20 18 23 32 27 20 14 1 1 359 4 331 312 353 333 293 337 335 322 342 358 13 11 4
166 154 126 137 116 97 99 92 77 62 44 38 41 33 36 25 16 3 360 358 7 14 23 21 23 17 20 5 347 358 2 325 312 340 299 342 325 330 311 332 334 2 358
145 150 156 130 129 114 96 85 75 66 51 42 57 64 80 45 337 314 318 343 3 3 11 13 12 10 7 11 348 355 339 345 328 334 17 274 291 312 318 320 326 315 330
164 164 155 144 126 124 114 95 84 67 57 65 76 80 69 59 299 333 356 351 341 348 356 3 2 4 359 349 354 349 346 333 310 329 322 302 262 247 270 301 303 302 282
154 141 136 130 136 126 116 112 101 79 71 75 70 78 68 16 10 357 352 337 325 320 338 341 351 342 341 337 329 329 336 325 317 311 312 292 307 302 294 300 302 297 305
146 150 149 158 161 161 166 149 111 99 90 74 62 59 60 33 1 325 302 314 311 298 307 320 325 317 312 316 322 324 317 307 302 305 293 286 285 280 281 286 298 273 302
152 163 174 179 187 184 168 135 150 158 166 110 5 36 76 239 262 251 261 269 257 262 268 279 285 298 306 307 307 302 296 298 289 284 273 283 266 275 278 280 299 306 286
173 171 179 192 236 285 199 191 196 223 265 270 255 262 260 258 261 264 258 261 267 262 264 268 275 282 282 286 296 289 289 282 280 280 272 257 272 273 272 268 251 264 298
123 108 76 24 354 327 355 49 26 357 347 348 354 337 329 324 308 302 294 292 284 279 274 269 270 275 278 276 276 278 279 277 275 270 269 279 273 249 253 265 268 254 268
119 105 78 55 59 65 64 56 43 36 28 18 356 347 329 321 311 295 288 289 292 285 273 261 263 269 275 275 272 265 267 267 272 271 268 272 266 277 246 248 251 261 251
119 108 86 74 59 56 47 48 32 23 2 336 327 323 311 304 302 297 292 293 287 286 276 271 265 262 264 265 260 267 273 266 269 274 269 270 272 270 249 244 251 259 258
111 99 75 59 44 30 17 2 351 332 318 308 310 308 304 300 291 292 302 304 297 286 275 260 252 255 265 268 258 253 266 263 262 264 259 266 263 268 249 253 259 257 272
111 98 62 38 8 332 300 295 291 266 281 296 294 286 285 287 289 287 286 290 292 293 288 276 270 267 268 262 256 256 256 256 260 257 253 255 248 252 250 252 251 256 261
105 86 40 339 315 321 322 320 307 308 309 311 306 289 282 276 273 273 274 281 285 290 284 287 285 280 266 258 255 252 254 253 257 258 254 252 246 247 246 244 241 230 254
116 16 322 318 314 308 302 303 298 291 292 291 288 284 280 280 279 274 276 279 278 281 282 280 278 273 264 263 268 275 261 254 254 259 258 250 256 260 263 260 256 248 230
110 315 299 292 285 271 256 262 266 271 274 270 274 277 275 274 270 267 264 266 276 279 274 276 276 269 260 265 273 280 276 252 257 256 260 264 259 255 242 253 258 254 256
290 275 265 263 268 273 285 281 284 283 281 278 274 271 269 269 274 274 272 275 278 275 276 274 274 270 270 270 271 275 270 257 253 251 254 250 259 252 243 241 240 241 238
268 273 277 270 277 275 271 270 273 269 272 277 278 280 278 281 277 273 275 280 277 277 276 270 273 270 268 268 269 275 265 251 250 257 250 242 255 262 263 249 242 242 241
279 274 269 260 257 266 274 287 292 291 286 282 280 281 284 282 281 277 282 284 279 275 281 276 273 269 266 264 271 277 272 260 255 261 254 257 257 263 268 253 245 243 244
287 288 283 273 275 283 283 282 283 280 280 285 287 292 295 290 283 283 283 283 279 284 284 278 276 271 258 264 270 277 276 261 263 259 262 250 254 262 268 264 242 234 238
303 302 296 286 278 273 278 282 281 281 286 287 290 291 291 287 288 288 288 282 285 285 280 280 278 268 261 257 266 276 278 275 266 256 253 250 256 261 262 266 261 256 241
286 284 278 285 281 269 252 275 284 291 289 296 300 297 294 292 292 290 288 288 289 285 282 279 277 275 264 256 264 274 280 279 277 266 256 261 263 267 270 268 268 261 243
283 282 284 284 286 288 281 258 286 295 299 297 295 295 295 296 294 290 287 286 287 285 285 284 282 279 275 274 266 265 268 271 273 272 272 264 265 263 260 263 259 237 208
277 269 269 276 285 296 297 294 294 292 292 291 295 296 292 291 291 285 285 282 279 280 284 283 281 279 276 267 270 274 273 257 243 253 231 244 249 252 254 248 231 219 224
275 280 282 277 291 297 294 290 283 284 289 296 299 294 295 293 290 290 289 280 285 289 288 289 287 282 281 286 286 285 283 281 280 274 260 248 238 235 240 239 241 215 227